GFSSE_500_spd_159.txt.gz
Wind_Speed
29 29 19 12 17 21 22 20 18 18 19 20 23 24 23 21 20 19 20 21 24 23 23 20 19 20 20 19 20 20 21 21 19 19 18 18 14 14 14 13 12 12 12
32 31 23 23 18 21 23 22 21 21 22 22 23 22 20 19 19 20 20 20 21 23 23 23 22 20 21 20 20 19 20 21 21 21 20 18 14 13 14 11 12 12 11
35 34 26 24 25 25 24 24 24 24 23 23 24 23 21 19 20 21 21 20 21 20 22 25 25 24 23 21 22 22 21 20 18 20 22 19 17 15 14 13 12 12 13
34 33 34 32 30 27 26 25 25 25 23 23 23 23 22 23 24 22 18 17 18 22 21 21 22 24 23 23 23 24 22 23 20 18 21 22 20 18 15 15 13 15 17
32 31 31 30 28 27 26 28 26 25 24 24 23 24 24 24 23 21 19 18 18 20 22 21 21 23 24 24 26 27 26 25 24 21 22 21 20 20 19 17 14 15 11
28 27 27 28 28 27 26 26 26 26 27 26 24 25 24 23 21 20 21 21 22 21 21 23 23 22 22 23 27 28 29 28 26 23 23 24 21 21 21 20 19 15 15
25 24 24 25 27 28 27 27 28 28 27 26 25 25 25 23 22 22 24 25 24 24 24 24 24 23 20 20 22 26 29 29 30 27 24 27 23 22 23 22 21 20 16
24 24 25 25 29 31 32 31 29 27 27 27 28 28 27 26 26 26 27 27 28 28 27 26 26 25 25 24 22 24 26 28 30 32 30 27 26 24 25 24 22 24 23
26 27 28 29 30 34 35 32 29 28 29 29 31 33 31 30 30 31 30 30 29 30 30 31 31 30 28 26 26 26 26 24 26 30 31 29 29 27 26 28 25 24 25
30 32 33 33 34 36 36 33 31 31 31 33 34 35 36 34 34 35 35 33 33 34 35 34 35 35 36 33 33 31 32 31 27 28 31 31 30 29 28 31 27 26 27
32 33 33 32 32 34 35 36 34 36 37 37 37 37 39 40 40 40 39 39 40 40 41 41 39 39 39 39 39 38 37 36 33 32 32 30 30 31 29 30 29 29 29
32 33 33 35 37 37 38 39 39 41 42 42 43 44 45 45 46 47 47 47 47 47 47 45 45 45 45 43 43 41 40 40 38 35 35 35 34 31 33 32 30 30 32
33 38 40 39 40 41 42 43 44 45 46 47 48 50 51 52 52 53 53 53 52 51 53 54 53 53 53 50 47 45 44 42 42 40 38 38 38 35 33 33 32 30 33
36 38 39 40 42 43 44 46 48 50 52 53 54 54 54 55 54 54 54 55 54 51 50 51 52 52 53 54 51 49 47 46 45 44 41 40 41 39 38 34 32 31 31
38 39 41 43 45 47 49 51 54 55 56 56 55 54 52 52 54 54 54 54 55 56 56 55 54 54 55 55 55 54 51 50 48 48 47 44 45 42 39 37 35 33 32
41 42 43 46 48 50 52 54 54 54 54 54 54 55 56 55 56 56 57 56 56 57 58 57 58 57 57 57 58 58 56 54 53 52 52 50 50 49 46 39 37 36 37
45 46 47 48 49 50 50 50 53 53 54 54 55 56 57 56 55 54 55 55 55 56 56 57 58 58 59 59 59 61 63 61 59 58 56 55 54 53 51 46 39 38 39
45 46 47 49 50 51 52 52 53 53 54 53 54 55 55 55 54 54 54 55 56 57 59 59 60 61 61 61 62 62 63 65 64 64 62 60 59 58 56 52 45 40 42
45 45 47 49 50 51 51 49 47 49 51 52 53 54 54 55 55 55 56 57 58 61 62 63 64 65 66 67 67 67 66 67 67 69 68 66 63 63 61 57 51 46 45
46 46 49 49 47 46 46 48 51 52 52 53 54 54 54 54 54 56 57 58 58 59 60 61 62 63 63 64 64 66 68 70 70 69 71 72 68 66 65 62 56 52 48
49 49 49 49 41 46 48 50 51 53 54 54 53 53 54 56 57 57 57 55 54 55 55 57 57 52 49 51 52 53 54 62 65 70 70 72 72 70 68 66 62 58 55
47 47 47 45 46 48 53 51 51 52 52 53 54 54 55 56 55 54 52 50 45 42 47 48 46 43 43 47 50 51 50 52 52 54 56 67 70 72 71 70 67 63 59
49 46 45 46 45 52 57 54 54 52 52 52 53 54 54 53 52 50 45 41 39 40 42 41 39 36 36 39 40 42 42 42 44 50 55 54 59 68 70 71 70 67 65
50 49 48 45 51 59 56 56 51 52 55 54 54 53 51 49 47 44 41 41 37 37 35 33 30 32 34 34 34 36 39 42 41 41 47 54 55 57 65 71 71 69 67
52 50 47 53 59 56 56 52 54 55 53 53 53 51 48 45 43 42 39 38 34 34 31 29 25 26 28 30 29 28 27 31 36 36 38 46 51 55 56 65 71 71 69
49 49 55 56 55 55 53 57 56 55 53 52 52 49 45 42 42 41 39 36 32 33 31 31 27 24 24 27 30 31 31 27 28 31 34 38 46 51 52 56 64 68 68

GFSSE_500_spd_162.txt.gz
Wind_Speed
16 20 24 25 19 13 17 20 23 23 25 23 23 22 21 19 18 19 18 19 19 20 21 22 21 21 22 20 18 17 17 18 18 18 21 21 20 20 18 16 14 13 13
19 23 27 27 21 16 20 21 23 26 24 24 24 23 21 20 19 18 19 19 20 22 21 20 20 24 23 22 21 21 20 19 18 17 20 22 22 21 19 18 15 14 13
25 27 30 28 24 25 26 26 25 27 25 23 23 23 23 22 22 23 23 21 19 18 19 18 18 19 21 23 23 22 23 23 20 18 19 20 22 22 19 19 17 14 14
29 33 33 27 26 26 27 26 24 25 26 26 25 24 22 22 23 23 21 19 18 18 19 19 20 18 18 21 22 23 23 24 23 22 21 21 21 20 20 19 18 15 17
29 30 26 25 24 25 25 24 24 26 27 28 28 25 23 24 23 23 22 20 19 20 21 22 21 21 18 20 21 20 24 26 26 25 24 24 22 21 19 20 19 19 18
30 25 24 24 25 23 24 24 25 27 29 29 30 25 22 23 24 23 23 22 22 23 23 23 23 22 22 20 21 21 21 23 25 26 27 28 25 23 20 21 22 20 18
30 23 23 25 24 23 24 26 27 31 32 31 28 25 23 24 25 26 25 24 26 26 26 25 25 25 24 23 23 22 21 22 23 24 26 29 30 27 24 23 23 23 23
28 26 24 25 24 25 27 28 29 31 31 30 28 26 27 27 27 27 28 29 29 29 30 29 28 27 27 26 25 26 24 24 24 24 25 26 28 29 29 26 25 24 25
28 27 27 27 27 28 29 30 31 29 31 31 30 30 31 31 30 30 31 31 32 33 32 31 31 30 30 30 30 29 29 28 25 26 26 26 27 28 27 28 29 28 26
29 30 31 30 30 30 30 30 29 30 31 32 33 34 34 34 34 35 35 35 36 37 36 36 36 37 36 34 33 34 34 34 34 31 30 31 30 28 29 27 29 30 28
28 30 31 31 31 31 32 32 32 33 34 35 36 36 37 37 39 40 40 41 42 42 43 43 43 43 43 42 38 36 37 37 38 37 35 34 35 31 31 29 28 29 30
28 30 31 31 32 34 37 37 37 38 38 39 40 41 41 43 45 45 46 47 48 48 49 49 50 49 49 48 48 44 42 41 41 41 40 38 38 36 34 35 31 31 30
32 33 34 35 37 40 41 41 42 43 45 44 45 47 49 50 50 50 50 51 51 51 51 52 53 53 54 54 54 53 51 48 47 45 42 43 42 41 38 38 35 32 31
34 36 37 39 41 44 45 46 47 48 49 50 52 53 53 52 52 51 51 50 50 50 52 53 53 52 52 52 52 50 51 50 49 49 47 47 46 44 43 41 38 35 33
38 40 42 43 45 46 47 48 50 51 52 53 54 54 53 53 53 53 53 54 54 55 55 56 55 55 55 55 55 55 56 56 55 52 51 49 50 49 47 45 42 36 35
42 44 45 46 47 48 49 49 50 51 52 52 53 54 55 55 55 54 54 54 54 54 55 56 56 55 56 56 57 57 58 60 59 58 55 54 52 53 52 51 48 41 36
43 44 45 46 47 48 48 50 52 53 53 53 54 55 54 53 52 53 54 54 54 55 55 55 54 54 54 55 55 56 58 59 60 62 61 58 58 56 57 55 54 48 41
45 46 48 48 49 49 50 50 51 52 53 53 51 51 52 54 54 54 53 53 53 53 55 55 56 57 58 61 62 62 62 62 63 64 65 64 63 61 60 60 59 55 47
47 48 50 50 49 49 51 52 50 48 48 49 50 50 51 50 50 50 51 51 53 55 57 58 60 60 61 62 62 63 66 68 69 69 67 68 68 66 64 64 63 61 54
47 47 49 50 51 53 53 51 48 46 51 52 51 50 49 49 49 51 52 53 55 57 58 59 58 58 59 57 58 59 62 64 65 67 71 70 70 71 69 67 67 66 62
50 48 51 53 54 55 53 52 49 52 55 55 53 51 50 50 50 52 53 54 56 57 57 58 56 57 57 54 52 48 49 50 53 54 58 66 69 68 70 70 69 68 67
50 50 53 54 53 52 51 48 48 50 56 54 52 50 50 52 53 54 54 55 56 55 54 50 47 46 44 42 38 39 40 43 46 47 49 49 54 63 67 68 69 69 69
54 55 54 53 53 52 49 47 50 55 55 54 52 53 55 55 54 54 53 53 52 50 45 42 41 38 37 37 31 33 35 36 37 39 39 43 47 51 56 63 67 68 70
55 55 53 53 51 48 47 53 56 55 54 55 57 58 56 56 55 54 53 51 48 44 40 38 36 35 32 28 27 30 29 28 28 31 40 40 40 43 51 54 59 65 68
54 53 53 47 49 48 55 57 57 55 56 58 57 56 55 54 52 50 48 46 45 40 38 35 33 35 29 27 25 25 27 27 25 23 26 36 39 40 41 48 55 57 63
55 48 44 46 47 52 57 59 57 59 59 58 57 58 56 54 51 48 46 44 41 37 35 31 32 33 30 29 27 23 23 25 29 29 23 26 33 33 38 39 48 56 56

GFSSE_500_spd_165.txt.gz
Wind_Speed
13 12 16 19 22 18 16 16 18 20 21 22 24 25 24 22 21 18 18 18 18 19 18 17 17 16 17 20 20 20 17 16 16 16 16 16 17 18 18 17 17 15 15
16 16 19 22 24 19 15 16 21 23 21 19 23 24 25 25 23 22 18 20 21 21 21 19 17 15 16 18 19 21 21 20 19 18 18 17 16 17 18 18 18 16 15
17 18 22 25 27 25 21 22 24 24 22 20 22 24 26 27 25 22 20 19 20 21 20 18 17 16 16 16 18 19 21 22 23 21 19 20 18 17 16 18 19 17 16
21 22 24 26 23 22 22 22 24 23 22 22 23 25 27 28 28 24 21 19 19 19 20 21 21 20 17 17 16 17 18 20 23 24 22 21 22 20 18 17 18 18 18
24 24 24 22 22 23 22 23 23 21 21 24 27 28 29 30 29 24 22 21 20 20 21 21 23 23 22 20 18 19 19 18 19 23 25 24 22 22 20 19 20 19 19
25 24 23 23 22 21 22 24 23 22 23 25 28 30 30 29 27 25 25 22 23 23 23 24 25 26 26 25 21 19 21 20 17 19 21 25 25 23 22 21 22 23 20
24 23 21 21 23 23 22 24 25 26 27 29 30 29 28 28 29 28 25 26 24 25 27 28 27 28 29 29 28 24 23 22 22 20 21 22 25 26 24 23 23 24 25
19 19 19 22 24 24 24 26 27 28 30 32 31 30 28 30 31 30 29 27 29 29 30 30 31 31 30 31 30 29 29 27 24 23 24 23 23 26 26 24 25 26 27
20 20 22 23 24 25 26 27 28 30 32 31 31 31 32 33 33 34 33 31 32 33 34 34 34 34 34 34 34 32 33 33 31 28 26 26 27 26 27 26 24 26 28
22 23 24 26 25 26 26 27 27 28 30 31 33 35 35 36 37 38 38 37 37 38 38 38 38 38 38 39 39 38 37 37 37 34 32 32 32 31 30 30 27 26 27
24 25 25 25 26 26 26 27 30 32 35 35 36 38 38 40 40 41 40 41 42 43 43 44 44 45 45 46 45 44 44 43 42 40 37 36 37 36 34 33 32 28 28
27 28 28 29 30 31 31 32 35 36 37 38 39 40 41 42 43 44 45 47 47 47 46 47 47 48 49 50 50 49 48 48 47 45 42 38 39 39 38 38 36 33 30
29 29 30 32 33 34 36 38 39 40 41 42 44 45 45 46 48 49 50 50 49 48 48 48 48 48 49 49 50 51 52 52 52 52 50 47 45 43 41 41 41 39 34
33 34 35 37 38 39 40 42 44 46 47 49 50 51 52 53 53 53 53 53 53 52 51 51 51 51 52 53 53 54 54 53 52 52 50 49 51 50 47 45 45 43 40
38 40 41 41 42 43 44 46 48 49 50 50 50 51 52 53 54 55 55 54 54 53 53 53 53 53 53 54 54 54 55 57 56 56 55 54 52 51 52 51 50 48 45
40 41 42 43 44 45 47 48 48 48 48 50 51 52 53 53 53 53 53 51 50 51 51 52 53 54 55 55 56 56 56 58 59 58 58 57 56 55 55 54 54 54 50
40 42 44 47 49 49 51 51 51 51 52 52 53 54 55 54 54 52 51 51 51 52 53 53 53 54 54 55 55 56 57 57 58 60 61 60 59 60 59 58 58 57 56
43 45 47 48 50 52 53 54 54 53 53 55 54 54 54 53 53 51 51 50 50 49 49 48 50 51 51 52 54 56 59 60 61 63 63 63 64 63 63 63 62 62 61
45 48 49 50 51 52 52 52 52 53 54 54 53 52 49 51 51 50 49 48 48 48 49 50 52 52 53 54 57 59 62 65 66 68 69 69 69 68 67 67 66 65 65
50 52 53 54 53 54 55 56 57 56 55 54 53 52 53 53 51 51 49 49 50 51 51 52 52 54 53 53 56 58 60 61 63 65 67 70 73 75 73 70 71 68 67
50 51 51 52 54 55 56 56 58 57 57 57 56 53 54 54 55 54 53 53 53 52 52 51 51 53 53 52 52 52 54 53 55 56 57 60 64 67 71 70 70 69 70
53 54 54 53 53 54 57 58 57 56 55 52 50 51 53 57 57 56 56 54 52 51 51 51 51 50 49 46 45 41 39 43 43 42 42 45 47 51 58 62 64 65 65
54 54 53 54 56 55 55 54 54 50 49 50 52 55 59 58 57 56 54 53 52 51 50 49 46 45 42 41 38 32 34 35 30 31 32 35 36 40 47 51 53 57 62
54 55 55 53 51 50 54 49 49 51 52 55 57 61 57 58 57 56 55 54 52 51 50 46 42 39 37 35 32 28 31 26 22 26 29 27 29 33 37 42 48 50 54
52 52 50 49 49 51 49 49 53 54 55 57 59 58 58 59 59 59 57 56 53 52 49 44 38 36 32 31 30 33 25 22 20 18 27 28 27 28 36 40 41 46 50
45 44 47 48 49 49 51 53 56 58 57 55 56 58 60 62 60 57 53 48 46 46 45 38 34 33 30 28 29 28 24 22 21 19 18 19 28 28 27 35 39 40 44

GFSSE_500_spd_168.txt.gz
Wind_Speed
16 16 16 17 20 22 20 16 18 17 20 23 22 19 17 18 21 23 23 22 19 19 18 17 16 16 14 13 15 15 17 19 21 20 18 17 15 15 15 15 14 14 14
18 17 18 19 21 22 21 19 19 20 23 24 22 21 20 22 23 25 24 24 22 21 19 18 17 15 15 16 17 17 15 16 20 23 24 21 18 16 16 14 16 15 15
20 19 19 21 24 23 19 19 20 21 21 22 21 21 20 22 25 27 26 25 25 23 20 19 16 15 15 16 19 19 18 18 19 21 24 24 23 20 18 17 15 17 17
21 20 21 23 25 23 20 20 20 21 21 21 22 22 22 23 26 28 27 26 25 23 22 20 19 19 17 18 19 20 20 18 20 21 23 25 25 24 22 19 19 17 18
25 23 23 23 23 21 20 21 20 22 22 23 24 23 24 25 27 28 27 26 25 26 23 23 23 21 20 20 20 21 22 23 21 21 22 24 25 25 24 22 21 19 20
27 26 26 25 23 21 18 21 22 23 24 25 26 25 26 26 28 28 27 27 28 27 26 25 27 25 25 25 23 23 23 24 25 24 24 23 24 25 25 25 24 22 22
27 25 25 24 21 19 20 23 24 25 26 28 28 28 30 30 29 28 29 29 30 31 30 28 28 28 29 29 29 28 27 27 25 27 27 27 25 25 25 25 25 25 24
22 18 19 17 18 20 22 24 27 28 29 30 30 30 31 31 30 30 31 32 33 34 33 33 32 32 33 32 33 33 32 31 30 29 30 30 29 29 26 25 25 25 27
20 20 20 19 21 23 25 26 28 29 29 30 30 29 30 31 32 33 34 35 37 38 38 38 38 37 37 36 36 37 37 37 36 34 33 33 33 32 29 28 27 26 25
21 20 20 22 23 24 25 26 27 28 28 29 30 31 34 35 36 37 39 40 40 41 42 42 42 41 41 41 41 41 41 42 42 41 39 38 37 36 34 33 32 30 28
20 20 21 23 25 26 27 28 29 31 32 33 35 37 38 39 40 41 42 42 43 43 44 44 46 47 47 47 47 47 46 46 46 47 46 44 42 41 39 37 38 37 33
21 22 25 26 27 29 31 32 33 34 36 38 39 40 41 43 44 46 46 46 46 47 48 49 49 49 50 51 51 51 50 50 50 50 51 49 47 46 43 41 41 41 39
24 26 28 29 31 32 33 35 37 38 40 42 44 44 46 48 50 50 51 50 50 50 50 50 50 50 50 50 50 50 51 51 51 52 52 51 51 52 50 47 45 44 44
29 31 31 34 35 36 37 39 40 40 42 44 46 47 49 51 52 52 53 53 54 54 54 54 54 53 52 52 52 53 53 53 54 54 54 53 53 51 54 54 53 50 49
31 32 34 36 37 39 41 42 43 44 46 47 48 50 51 53 54 56 56 56 56 55 55 54 54 53 52 51 51 52 53 54 54 55 55 55 55 54 54 53 52 55 54
33 34 36 38 39 40 42 44 46 48 49 50 51 52 54 56 58 59 61 61 60 58 56 54 53 52 51 51 52 53 54 55 56 57 57 58 58 58 57 57 57 56 55
39 40 41 42 43 44 46 48 50 51 53 54 55 56 58 59 60 60 60 58 59 58 55 55 55 55 55 53 53 52 53 54 55 56 57 58 61 61 61 59 59 59 59
41 42 43 46 47 49 49 51 53 53 53 54 53 54 56 59 59 58 56 54 53 53 51 50 50 49 49 50 49 51 52 53 54 56 58 58 60 62 63 64 63 61 61
39 40 43 46 49 51 52 53 53 54 54 54 55 56 57 57 56 55 53 52 53 51 50 50 53 52 51 51 52 54 54 56 58 60 62 63 65 65 67 68 68 66 65
42 44 46 49 50 51 53 55 56 56 56 57 59 59 59 58 58 58 57 56 54 52 53 54 55 57 55 55 55 56 56 58 59 62 64 66 68 70 72 72 73 72 69
47 49 51 52 53 54 55 55 53 54 56 57 58 58 57 56 54 51 53 54 56 56 56 57 57 56 55 53 53 54 55 56 55 54 57 58 61 63 65 67 69 72 73
51 53 54 55 55 55 54 51 53 55 55 56 57 55 53 52 53 56 58 60 57 58 57 57 56 55 55 53 52 49 48 48 48 45 48 47 48 50 53 56 59 63 67
54 55 55 55 55 54 53 51 51 52 54 56 55 54 54 55 60 61 59 59 57 56 55 55 55 53 51 49 46 43 43 43 38 36 38 35 33 35 39 42 48 54 57
54 54 55 54 52 51 49 47 49 51 54 55 55 55 58 62 63 59 60 59 57 57 56 55 53 51 49 48 43 40 38 35 28 32 34 30 26 26 31 35 41 44 51
51 51 50 50 49 46 47 49 47 51 54 56 59 56 62 57 56 57 56 56 56 55 52 50 48 48 45 42 40 37 34 30 28 23 25 27 20 24 26 28 32 38 43
48 45 45 45 45 46 46 48 48 51 54 59 62 61 55 51 53 53 53 52 50 46 43 42 41 41 39 37 38 31 30 29 27 18 17 23 23 19 23 31 31 29 37

GFSSE_500_spd_171.txt.gz
Wind_Speed
22 22 22 21 21 21 22 22 21 17 17 17 19 20 19 18 18 19 19 20 23 21 19 20 18 16 16 14 12 12 14 15 14 16 18 19 20 18 17 17 16 16 17
23 22 22 22 22 22 24 23 22 18 19 21 19 19 19 20 20 20 19 20 23 23 23 22 21 18 16 15 16 15 15 15 17 17 18 20 21 21 18 18 18 17 19
23 23 23 23 22 25 24 23 19 18 20 19 19 19 20 21 22 20 20 22 23 22 22 22 23 21 18 17 17 18 17 17 18 19 19 20 21 23 22 21 19 19 19
26 26 26 25 24 25 26 23 20 20 20 19 20 20 21 22 23 21 22 23 24 23 23 23 25 24 21 20 19 19 19 20 20 21 22 22 23 22 24 23 23 21 21
26 26 26 25 27 26 27 25 22 21 21 22 22 23 23 24 24 23 24 24 25 25 25 25 26 27 25 24 22 22 22 21 22 23 24 25 25 24 26 23 24 24 22
26 27 28 29 27 26 26 26 22 22 23 24 24 25 25 26 27 28 28 27 27 26 28 28 28 29 29 28 28 26 25 24 23 24 25 27 27 28 29 27 24 24 24
27 28 28 29 31 31 28 23 22 23 24 26 26 26 27 29 30 30 31 30 29 29 30 31 30 31 31 31 32 31 30 30 28 28 26 28 30 30 32 29 27 25 25
25 27 28 23 21 22 21 23 24 25 26 28 29 29 29 30 30 30 30 30 31 33 32 33 34 35 36 36 36 35 36 35 35 32 32 30 32 31 34 32 31 28 25
16 19 20 20 20 21 22 23 25 27 28 29 29 30 30 30 30 31 32 33 35 36 36 38 39 40 40 41 41 41 40 40 40 39 37 36 36 34 36 34 34 32 29
16 17 18 18 18 20 22 24 24 25 27 29 30 31 31 33 35 36 36 37 39 39 40 41 42 42 43 44 45 45 46 46 45 43 44 44 41 38 38 39 37 37 35
17 16 17 18 21 23 24 25 27 29 30 32 33 34 36 37 39 40 41 41 42 43 44 45 44 44 45 45 46 48 48 49 49 50 50 50 48 45 44 42 42 42 41
19 18 19 21 23 24 26 27 28 30 31 33 34 35 37 39 40 42 43 45 46 46 47 47 47 48 48 49 49 49 49 50 50 51 51 51 51 51 51 48 46 45 45
19 21 22 24 25 27 28 29 31 33 34 36 37 39 40 41 42 44 45 47 48 49 50 51 52 53 54 55 54 53 52 53 53 53 53 52 52 53 53 53 51 49 48
22 25 26 27 27 28 30 32 33 36 37 38 39 41 43 44 46 48 49 51 52 53 54 55 56 57 57 56 55 53 53 54 54 55 56 56 54 54 53 54 53 54 52
26 28 28 29 30 32 34 36 38 39 41 42 44 46 48 49 51 54 55 57 58 58 59 59 60 61 60 58 55 54 52 53 54 54 55 55 56 56 57 57 57 56 55
29 30 32 34 35 37 38 40 41 42 45 46 47 48 50 52 54 56 58 59 59 60 61 62 61 62 60 59 57 55 55 54 54 54 54 54 56 57 57 58 58 58 57
33 35 37 39 39 40 41 41 42 44 45 47 49 50 52 53 55 57 58 58 58 58 58 57 58 57 58 57 57 57 56 55 55 54 54 55 55 57 58 60 61 60 60
39 40 42 43 42 42 44 46 47 48 48 49 51 52 54 56 57 58 59 59 57 55 54 55 55 57 57 56 56 54 55 55 55 57 57 57 58 59 59 62 63 63 63
41 42 42 42 43 46 48 48 50 50 52 52 54 54 55 57 59 61 59 57 54 52 51 50 52 53 53 54 55 55 56 56 57 58 59 60 62 60 62 61 62 63 66
41 42 44 46 49 50 51 52 53 53 53 54 55 57 58 58 58 57 55 52 49 50 51 53 55 55 53 53 55 57 59 61 60 61 63 62 63 60 66 67 65 68 69
42 46 50 52 53 54 55 56 57 55 54 55 56 57 58 58 56 54 52 50 52 55 61 61 60 57 57 58 59 61 60 60 59 60 61 63 63 64 65 66 68 70 69
48 49 52 54 54 56 57 57 57 56 56 55 56 56 55 55 55 52 52 54 59 60 61 57 59 60 62 61 60 59 57 56 55 55 58 60 59 58 57 58 59 61 63
50 52 53 54 56 58 57 57 56 55 56 56 54 54 54 53 53 54 56 61 64 59 59 59 59 57 58 58 58 56 53 54 50 51 51 52 49 48 46 48 50 52 56
53 54 56 57 58 58 56 54 54 55 53 52 52 53 53 53 54 59 64 61 56 55 54 53 53 52 53 52 53 52 51 50 47 43 44 40 37 36 38 40 40 41 44
58 56 56 56 57 58 53 52 51 52 52 51 51 50 52 57 61 55 51 51 52 51 50 49 47 45 46 45 46 45 45 45 43 38 30 34 30 31 33 34 32 32 34
56 56 56 56 53 50 49 49 50 50 50 49 49 51 55 58 55 49 49 48 47 48 47 45 43 47 46 41 41 41 39 38 38 33 25 29 31 27 26 27 30 29 30